Location: Centerville
(32.8776°N, 96.6203°W)
Time: 05:31:02
(UTC+00:00)

BREEZE-M DEB (TANK) - Pass Details

Date: 17 June 2021
Orbit: 431 x 13231 km, 46.0° (Epoch: 29 July)

Event Time Altitude Azimuth Distance (km) Brightness Sun altitude
Exits shadow 10:17:28 14° 247° (WSW) 2,179 5.2 -11.5°
Maximum altitude 10:21:24 56° 324° (NW) 636 3.1 -10.8°
Drops below altitude 10° 10:24:15 10° 45° (NE) 1,540 6.7 -10.3°
Sets 10:26:01 0° 51° (NE) 2,412 8.5 -10.0°
